Dewpoint
-10 -11 -11 -11 -9 -9 -9 -9 -8 -8 -8 -8 -7 -7 -6 -4 -5 -5 -2 -2 -2 -1 -1 -1 -2 -2 -3 -3 -4 -5 -5 -6 -6 -7 -6 -5 -5 -4 -4 -3 -3 -1 2 4 8 14 16 16 17 18 19 18 18 17 16 17 17 19 20 20 20 20 21 22 23 24 25 24 24 23 23 22 23 26 26 25 25 26 30 28 29 30 30 31 33
-12 -13 -12 -11 -10 -10 -10 -9 -9 -8 -8 -7 -5 -5 -5 -5 -5 -3 -2 -1 -0 1 1 4 0 -1 -1 -2 -3 -4 -4 -4 -4 -3 -3 -3 -3 -4 -5 -4 -3 -2 -0 3 5 9 12 19 19 18 19 19 19 17 15 16 16 17 19 21 21 21 21 21 22 22 22 23 23 23 22 22 21 25 26 26 24 25 26 26 27 27 29 31 31
-12 -12 -11 -10 -10 -10 -10 -9 -8 -7 -6 -6 -6 -5 -5 -4 -2 -1 -0 0 1 1 2 2 2 1 1 0 1 1 -1 -2 -2 -3 -2 -2 -2 -3 -3 -1 -1 -1 0 1 4 8 9 13 17 21 21 20 19 19 17 17 17 19 19 20 21 22 22 22 22 21 21 22 23 23 22 21 22 23 26 26 26 26 24 23 25 25 26 29 30
-12 -11 -10 -10 -11 -10 -10 -9 -9 -8 -7 -6 -6 -5 -4 -2 -1 1 1 2 2 2 2 2 2 2 1 0 -1 -2 -2 -1 -1 -1 -0 -2 -3 -2 -2 -1 2 4 4 6 7 8 10 12 15 18 21 21 21 21 20 20 20 20 20 20 21 21 23 23 23 23 22 22 22 23 23 22 22 23 25 25 25 24 25 23 23 24 25 26 27
-11 -11 -11 -11 -11 -10 -10 -10 -9 -7 -6 -6 -5 -4 -2 -1 0 1 1 1 2 2 2 3 3 3 2 2 1 -0 -1 0 1 0 0 -1 -2 -2 -0 2 3 5 5 5 9 8 9 9 12 16 19 20 21 22 22 21 20 21 21 22 22 22 22 23 24 24 24 24 24 24 23 22 22 22 25 24 22 22 23 22 24 24 23 24 25
-11 -10 -10 -10 -10 -11 -10 -10 -8 -8 -7 -6 -5 -3 -1 -1 -0 0 1 2 2 3 3 3 4 3 3 3 2 2 2 2 1 0 -0 -1 -1 2 6 8 8 8 7 6 9 10 9 9 10 13 16 19 19 20 20 19 19 21 22 23 24 25 25 24 25 25 25 24 24 24 24 24 23 22 24 25 24 21 22 21 22 22 23 24 25
-10 -10 -10 -11 -11 -11 -10 -10 -8 -8 -6 -5 -3 -2 -1 -0 0 1 2 3 3 3 3 3 3 4 4 4 4 4 4 4 3 2 1 0 3 4 5 7 8 9 9 9 10 10 12 14 15 16 16 17 18 18 16 14 15 16 19 22 24 23 23 25 25 25 25 24 24 25 25 25 25 23 23 25 25 24 23 20 21 23 23 25 25
-10 -10 -11 -11 -11 -10 -9 -9 -8 -6 -5 -4 -3 -2 -0 0 1 1 2 2 3 3 4 4 4 4 5 5 5 5 5 6 5 4 4 5 5 5 5 5 6 7 7 9 9 10 12 14 15 16 17 19 17 15 13 12 13 14 18 20 22 23 23 22 22 24 25 25 25 25 25 25 25 25 24 24 23 21 21 23 23 22 23 25 26
-11 -12 -12 -12 -11 -9 -9 -8 -7 -6 -5 -3 -2 -1 0 1 2 3 3 4 4 5 5 5 6 6 6 6 6 7 7 7 7 8 8 7 7 5 5 6 6 7 8 8 8 9 11 13 14 14 16 16 18 19 19 19 15 15 16 19 21 21 23 23 22 22 24 25 25 25 25 24 24 23 23 23 23 22 22 22 22 24 22 22 23
-12 -12 -12 -11 -10 -9 -8 -7 -6 -5 -4 -3 -2 -0 1 1 2 3 2 3 5 5 6 6 7 7 7 8 8 8 8 9 10 14 15 10 8 7 7 6 6 6 6 6 7 7 8 9 11 14 14 16 17 17 18 18 18 18 17 18 18 20 20 22 23 23 24 24 24 24 23 23 24 23 22 23 23 23 22 23 22 23 20 19 22
-12 -12 -11 -10 -9 -9 -8 -7 -5 -4 -3 -3 -1 -1 0 1 2 2 2 3 4 5 6 7 7 8 8 9 9 9 10 10 15 17 18 19 15 11 9 7 7 7 7 6 6 6 7 8 8 11 13 14 14 16 17 17 18 19 20 21 21 20 20 21 22 24 24 24 24 24 24 23 23 23 22 22 23 22 22 23 23 19 20 21 21
-12 -11 -11 -10 -9 -8 -7 -6 -5 -4 -2 -1 -1 -0 0 1 1 2 2 3 4 5 6 7 8 9 9 9 10 10 10 15 18 19 20 20 19 15 14 12 10 9 8 8 8 8 8 8 7 7 7 8 9 9 12 15 17 18 20 21 22 22 23 22 21 22 24 24 24 24 24 24 24 24 24 23 23 23 23 22 22 22 20 21 21
-11 -11 -10 -9 -9 -8 -7 -6 -4 -3 -3 -2 -1 -1 -0 -0 0 1 1 3 4 5 6 7 8 9 10 10 10 11 11 16 19 20 21 21 21 19 17 16 14 12 11 10 10 10 10 10 10 9 7 11 10 10 9 9 14 15 17 19 21 22 22 23 24 24 25 26 25 24 24 24 25 24 24 25 26 24 23 22 21 22 22 22 22
-11 -10 -9 -9 -8 -7 -6 -4 -4 -4 -3 -3 -2 -1 -1 -1 -0 1 2 4 4 5 6 6 8 10 11 11 12 12 12 16 19 21 21 22 22 21 18 18 17 15 14 13 12 12 11 11 11 11 10 10 9 9 9 10 11 13 14 17 19 20 21 22 24 25 26 27 26 26 26 25 26 27 26 27 26 24 23 21 21 21 21 22 23
-9 -10 -9 -8 -7 -6 -5 -5 -5 -5 -4 -3 -2 -2 -1 -1 0 1 2 3 4 5 6 7 9 10 11 12 13 13 13 19 21 22 22 23 22 21 19 19 18 17 16 15 14 14 13 13 13 12 13 12 12 11 10 11 12 13 15 17 18 19 20 22 24 25 26 28 28 28 28 28 28 29 26 24 22 22 22 21 22 23 24 24 24
-10 -10 -9 -8 -7 -7 -6 -5 -5 -4 -4 -3 -2 -2 -2 -1 -0 1 2 3 5 6 7 9 10 11 12 13 14 14 15 21 22 23 23 24 23 21 21 20 19 18 18 17 16 16 15 14 14 14 14 14 15 17 17 14 12 13 15 16 17 19 21 23 24 25 26 27 28 28 28 28 29 30 29 28 26 24 24 24 23 23 24 25 24
-10 -9 -8 -8 -7 -6 -6 -5 -5 -4 -4 -3 -3 -2 -2 -1 0 2 2 3 4 5 7 9 10 12 13 14 15 15 16 20 23 23 24 25 24 22 22 21 20 19 19 18 18 17 17 16 16 15 15 15 18 19 20 19 17 16 15 16 17 17 18 20 24 25 26 28 29 30 31 31 31 31 32 31 30 27 24 24 25 24 23 24 24
-9 -9 -8 -8 -6 -6 -6 -5 -5 -4 -4 -3 -3 -2 -1 -0 0 2 2 3 4 6 8 9 11 12 14 14 16 16 18 21 24 26 26 26 25 23 21 21 20 20 20 20 19 19 18 20 19 17 16 16 20 22 22 20 19 19 17 17 16 16 17 18 20 22 25 26 28 31 31 30 31 31 31 31 31 31 28 27 27 26 25 24 23
-9 -8 -8 -8 -6 -6 -5 -5 -5 -4 -4 -3 -2 -2 -1 -0 1 2 3 4 5 7 9 10 11 13 14 15 19 19 20 23 26 27 27 26 26 24 23 21 20 20 20 20 21 20 20 21 22 21 19 19 22 23 24 23 21 20 20 19 18 18 18 19 19 20 21 23 25 28 29 30 30 30 30 31 31 31 28 28 28 26 25 25 25
-9 -8 -8 -7 -6 -5 -5 -5 -5 -4 -4 -3 -2 -1 0 1 1 2 3 5 6 8 9 11 12 13 15 17 18 19 21 23 23 24 25 25 25 25 24 22 21 21 21 21 21 22 21 21 22 24 25 24 24 24 25 25 23 22 21 20 20 20 21 20 21 22 22 23 24 25 27 29 30 29 29 29 30 30 28 28 28 27 26 25 25
-9 -8 -7 -7 -7 -7 -6 -6 -5 -4 -3 -3 -1 -0 1 1 2 3 4 6 7 8 9 11 12 14 15 16 18 19 20 21 22 23 23 24 24 24 23 23 23 22 22 22 22 21 21 22 22 23 25 26 26 26 27 27 26 24 23 21 22 22 23 21 21 22 23 24 25 26 27 28 27 27 27 27 26 27 28 29 28 28 27 26 25
-8 -7 -8 -9 -8 -7 -7 -6 -5 -4 -3 -2 -1 -0 1 2 3 4 5 6 7 8 9 11 12 13 14 16 17 17 19 19 19 20 22 23 23 24 22 22 23 23 22 22 22 23 22 21 21 22 24 26 25 26 26 27 27 26 24 25 25 24 22 22 22 23 24 24 25 26 26 26 26 26 25 25 26 28 28 29 29 29 28 27 26
-8 -8 -8 -8 -8 -8 -7 -6 -5 -4 -3 -2 -1 0 1 2 3 5 5 6 7 8 9 11 12 12 13 14 15 16 17 17 18 18 19 21 22 22 23 22 23 23 22 21 21 22 23 23 24 24 24 24 23 23 24 25 27 27 28 27 26 24 23 22 23 23 23 24 24 24 25 25 25 25 25 25 26 27 28 30 30 30 29 23 21
-9 -8 -8 -9 -9 -8 -7 -6 -5 -4 -3 -1 0 -0 0 2 3 4 5 5 6 7 9 10 10 11 12 12 13 13 15 15 17 18 18 19 21 22 22 22 22 21 21 20 20 21 22 23 23 24 25 26 25 23 23 23 25 27 28 28 26 25 23 23 23 23 24 24 24 24 24 24 24 24 24 26 26 27 28 29 30 30 25 22 20
-9 -9 -10 -10 -9 -9 -8 -7 -5 -3 -1 -1 -1 -0 0 1 2 3 4 5 6 7 9 10 10 11 11 11 12 12 13 14 15 16 17 17 19 20 21 21 21 21 20 20 20 21 22 23 23 23 23 24 25 26 24 23 24 26 27 27 26 23 23 23 23 23 22 22 23 23 23 24 24 24 25 25 26 26 26 25 25 23 21 19 18
-10 -11 -11 -10 -10 -10 -9 -7 -5 -3 -2 -1 -0 1 1 1 2 3 4 5 6 8 10 10 10 11 11 11 11 12 12 12 13 14 16 16 17 18 19 19 20 20 20 19 21 22 22 23 23 23 22 23 24 24 23 23 24 24 26 26 24 23 23 23 23 23 22 21 22 22 22 23 23 24 24 24 26 25 25 24 23 20 21 21 20
-11 -12 -12 -11 -11 -9 -8 -6 -5 -3 -2 -1 -1 0 1 2 3 4 5 6 7 9 10 10 10 11 10 10 11 11 10 11 12 13 14 15 16 17 17 18 19 20 19 19 19 20 20 21 21 22 22 22 23 23 24 25 24 24 26 26 25 24 24 24 23 23 23 22 22 22 22 22 23 24 24 25 25 24 24 24 23 22 22 22 21
-12 -13 -13 -11 -10 -9 -7 -5 -4 -4 -3 -2 -1 -1 1 2 3 4 5 6 7 9 10 10 11 11 10 10 10 10 10 10 11 13 14 15 16 16 17 17 18 18 18 18 19 20 20 21 22 22 22 23 23 23 24 24 24 24 25 26 26 25 25 25 25 24 23 23 23 23 22 22 22 23 25 25 25 25 25 24 23 22 22 21 19
-12 -13 -13 -11 -10 -8 -7 -6 -5 -4 -4 -2 -1 0 1 2 3 5 7 9 10 10 10 11 12 12 11 10 10 9 9 10 12 15 15 17 16 16 16 17 18 18 18 19 18 19 18 18 17 16 16 17 17 17 17 19 23 23 23 24 25 25 26 25 25 24 24 24 24 23 23 23 23 24 25 25 25 25 25 24 23 22 21 21 20
-13 -13 -12 -12 -10 -9 -7 -7 -6 -4 -4 -3 -1 -0 3 7 6 6 7 10 12 14 13 11 12 11 11 10 10 9 9 11 16 17 18 18 18 18 19 19 19 18 18 18 17 14 13 13 13 13 13 13 13 13 14 15 16 17 19 22 24 24 24 24 24 25 26 26 26 25 24 24 24 25 25 25 25 25 24 24 22 22 21 21 20
-13 -13 -12 -12 -10 -9 -7 -6 -6 -5 -3 -2 -2 -1 -1 2 7 10 9 10 11 13 13 13 13 13 11 9 10 13 13 15 16 17 18 18 18 18 18 18 18 18 16 14 11 10 10 10 10 10 10 11 11 11 12 12 13 13 14 16 19 20 23 24 23 24 26 26 26 26 25 25 24 24 24 24 23 23 24 23 22 21 21 20 20
-14 -14 -13 -12 -10 -8 -7 -6 -5 -5 -4 -3 -2 -1 -2 -1 -1 4 9 10 11 11 11 12 12 13 12 11 11 9 12 14 15 16 17 17 17 17 17 17 17 17 15 13 8 7 8 8 8 7 8 9 9 10 11 11 11 12 13 13 13 15 16 16 17 18 20 23 25 26 25 25 24 24 24 23 22 22 22 21 21 20 20 20 20
-14 -14 -13 -11 -10 -8 -7 -6 -5 -5 -4 -3 -3 -2 -2 -2 -2 -1 1 7 9 9 9 10 11 12 12 12 13 14 14 14 15 16 16 17 17 16 15 15 15 15 13 8 7 6 6 6 5 6 6 7 7 8 9 10 10 11 11 12 12 12 13 14 15 17 18 21 22 24 25 25 24 24 23 22 21 21 21 20 20 20 20 20 17
-14 -13 -12 -11 -10 -8 -7 -6 -6 -5 -4 -3 -3 -3 -2 -1 -1 -1 -1 -2 -1 1 4 7 9 10 9 10 11 13 14 14 15 15 15 15 15 14 12 9 13 13 9 3 4 5 6 4 5 5 5 6 6 7 8 9 10 10 10 11 11 11 12 13 13 13 13 14 17 21 23 24 24 23 22 21 21 20 19 19 19 19 19 18 16
-14 -11 -9 -8 -8 -7 -7 -6 -6 -5 -3 -3 -3 -2 -2 -1 -1 -1 -2 -2 -3 -4 -4 -3 2 5 2 3 8 12 13 13 14 13 14 14 14 12 8 -0 -1 -0 0 0 1 1 3 4 3 3 4 4 5 5 5 7 8 9 10 10 11 11 11 11 11 11 11 12 14 16 18 22 23 22 21 20 20 19 19 18 18 19 19 17 14
-13 -12 -11 -10 -8 -7 -7 -7 -6 -5 -4 -3 -2 -2 -1 -1 -2 -2 -2 -2 -3 -4 -4 -5 -5 -0 2 2 5 9 12 12 12 12 13 13 11 9 -3 -3 -3 -3 -2 -2 -2 -2 -1 0 1 1 2 2 2 3 4 5 6 7 9 9 10 11 11 10 10 10 10 12 12 14 16 17 22 22 21 20 20 19 18 18 18 18 18 16 14
-13 -12 -11 -9 -9 -9 -8 -7 -6 -4 -3 -2 -2 -3 -2 -2 -2 -3 -3 -4 -4 -4 -5 -6 -5 -6 -3 -3 2 7 9 9 9 9 9 9 8 -1 -4 -5 -5 -5 -4 -5 -4 -4 -5 -4 -3 -1 -0 -1 -1 -0 1 2 3 5 8 8 9 10 11 11 12 11 11 11 12 13 13 14 15 18 20 19 19 19 18 17 17 16 16 14 11
-13 -13 -11 -10 -10 -9 -9 -7 -5 -4 -3 -3 -3 -4 -3 -3 -3 -4 -4 -5 -5 -5 -6 -7 -3 -7 -8 -6 1 1 -3 2 4 2 3 3 -5 -6 -6 -6 -6 -6 -6 -6 -6 -6 -6 -6 -5 -5 -3 -3 -3 -3 -2 -1 1 2 4 7 8 9 11 10 10 10 11 11 12 12 12 13 14 15 15 18 18 17 17 16 17 16 14 11 11
-12 -9 -8 -7 -7 -8 -8 -6 -5 -4 -4 -4 -4 -4 -3 -4 -5 -6 -7 -8 -8 -7 -6 -8 -8 -7 -7 -4 -3 0 -5 -8 -8 -8 -8 -8 -7 -7 -7 -7 -7 -7 -7 -7 -7 -7 -8 -8 -7 -7 -5 -5 -5 -5 -4 -3 -2 -1 1 4 6 7 8 8 8 9 9 10 11 12 12 12 13 13 13 14 14 14 15 14 14 14 12 12 12
-12 -10 -9 -8 -7 -7 -6 -5 -5 -6 -5 -6 -6 -5 -5 -6 -7 -7 -9 -10 -9 -9 -9 -8 -8 -8 -6 -3 -2 -2 -9 -8 -9 -9 -9 -9 -8 -8 -8 -8 -8 -8 -7 -7 -7 -7 -8 -8 -8 -7 -7 -7 -6 -6 -5 -5 -4 -3 -2 1 4 5 6 7 7 7 8 9 10 10 11 11 12 12 12 12 12 12 12 12 11 11 12 11 10
-12 -10 -9 -9 -8 -7 -7 -7 -8 -8 -8 -7 -7 -7 -8 -6 -6 -6 -10 -10 -9 -10 -10 -10 -10 -8 -5 -3 1 1 -9 -9 -9 -9 -9 -9 -9 -9 -9 -9 -8 -8 -8 -7 -7 -7 -8 -8 -8 -8 -7 -7 -6 -6 -6 -5 -5 -5 -5 -3 -0 3 5 6 6 6 7 7 7 8 9 10 10 10 10 10 12 11 9 10 10 10 9 9 7
-12 -11 -11 -10 -9 -8 -9 -9 -9 -6 -9 -7 -9 -8 -6 -7 -8 -9 -9 -9 -9 -9 -10 -11 -11 -10 -5 -2 -2 5 -7 -10 -9 -9 -10 -9 -9 -9 -9 -9 -9 -9 -8 -7 -7 -7 -8 -8 -8 -8 -8 -7 -6 -6 -6 -6 -6 -6 -6 -5 -4 -1 2 3 3 4 6 6 6 6 7 8 9 9 10 12 9 9 9 9 9 8 8 6 5
-12 -11 -10 -10 -10 -9 -9 -9 -10 -11 -11 -11 -10 -6 -6 -8 -10 -9 -10 -10 -10 -10 -11 -11 -11 -10 -9 -7 -7 -6 -10 -11 -8 -10 -10 -10 -10 -10 -10 -10 -9 -9 -9 -8 -7 -7 -7 -8 -8 -8 -7 -7 -6 -6 -6 -6 -6 -6 -6 -6 -5 -4 -2 -1 0 1 2 4 5 5 5 5 5 5 5 6 7 7 6 6 6 5 5 4 3
-11 -11 -10 -10 -9 -9 -8 -10 -10 -10 -11 -9 -8 -8 -8 -9 -10 -11 -12 -12 -12 -11 -12 -12 -12 -11 -12 -9 -9 -9 -11 -11 -11 -11 -11 -10 -10 -10 -10 -10 -10 -10 -9 -8 -7 -7 -8 -8 -8 -8 -8 -6 -5 -5 -5 -6 -6 -6 -6 -7 -7 -6 -6 -5 -4 -3 -1 1 4 4 4 4 4 4 4 4 5 5 4 4 4 4 3 3 3
-12 -11 -11 -12 -11 -11 -11 -11 -11 -11 -10 -10 -12 -13 -10 -12 -12 -12 -11 -12 -11 -11 -12 -12 -12 -13 -12 -13 -12 -12 -12 -12 -10 -10 -11 -11 -11 -11 -11 -11 -10 -10 -10 -9 -8 -8 -8 -8 -8 -8 -8 -8 -7 -5 -4 -5 -6 -7 -7 -8 -9 -10 -10 -10 -9 -6 -3 -1 1 3 3 3 4 4 3 3 3 3 3 2 2 -0 1 1 1
-12 -12 -12 -12 -12 -11 -12 -13 -11 -12 -13 -13 -14 -15 -14 -14 -15 -13 -12 -12 -12 -12 -13 -13 -14 -13 -13 -15 -14 -13 -13 -13 -13 -12 -11 -11 -11 -11 -11 -11 -11 -10 -10 -9 -8 -8 -8 -8 -8 -9 -8 -8 -7 -6 -4 -5 -6 -6 -7 -7 -8 -10 -10 -11 -10 -8 -5 -4 -3 -0 1 1 1 1 1 2 2 2 2 1 1 1 1 0 -1
-12 -12 -12 -12 -12 -12 -12 -12 -13 -14 -15 -14 -13 -14 -14 -15 -15 -12 -11 -11 -12 -11 -13 -15 -15 -16 -15 -16 -15 -16 -14 -14 -13 -13 -13 -13 -12 -12 -12 -11 -11 -11 -10 -10 -9 -9 -9 -8 -8 -9 -9 -8 -8 -7 -6 -5 -6 -7 -7 -7 -8 -9 -10 -10 -10 -10 -9 -7 -5 -2 -0 -1 -1 -1 -1 -1 -0 -0 -0 0 0 -1 -1 -2 -2
-13 -12 -12 -12 -13 -14 -14 -15 -14 -12 -14 -14 -14 -14 -14 -14 -15 -14 -14 -14 -14 -14 -15 -15 -16 -17 -14 -16 -15 -15 -15 -16 -15 -13 -13 -12 -13 -12 -12 -12 -12 -12 -11 -11 -10 -9 -9 -9 -9 -9 -9 -9 -8 -8 -7 -6 -7 -7 -7 -7 -8 -9 -9 -9 -10 -10 -10 -8 -6 -5 -3 -3 -3 -2 -2 -1 -2 -1 -2 -2 -3 -3 -4 -4 -4
-13 -13 -13 -12 -14 -15 -15 -15 -15 -16 -16 -16 -15 -16 -15 -16 -15 -16 -16 -16 -16 -15 -18 -17 -18 -17 -17 -16 -15 -16 -16 -14 -16 -16 -15 -14 -13 -12 -12 -12 -12 -12 -12 -12 -11 -10 -10 -10 -9 -9 -9 -9 -9 -9 -9 -9 -8 -8 -7 -8 -9 -9 -9 -9 -9 -8 -9 -8 -7 -6 -6 -6 -6 -6 -5 -5 -4 -4 -4 -4 -5 -5 -5 -6 -6
-13 -13 -13 -13 -14 -15 -15 -15 -16 -17 -16 -17 -18 -18 -16 -16 -18 -17 -18 -17 -18 -17 -19 -18 -17 -18 -18 -17 -16 -17 -17 -17 -17 -17 -16 -15 -14 -13 -12 -13 -13 -12 -12 -12 -12 -11 -11 -10 -10 -10 -10 -10 -9 -10 -10 -10 -9 -8 -7 -8 -9 -9 -9 -9 -9 -8 -8 -8 -7 -7 -7 -8 -8 -8 -8 -8 -8 -7 -7 -7 -7 -8 -7 -7 -8
-13 -14 -14 -14 -14 -15 -16 -17 -17 -18 -19 -18 -19 -19 -18 -19 -19 -19 -18 -20 -21 -20 -18 -20 -20 -19 -18 -19 -16 -18 -18 -18 -17 -18 -17 -16 -15 -14 -14 -14 -13 -13 -13 -12 -12 -12 -11 -11 -10 -10 -10 -10 -10 -10 -10 -10 -8 -8 -8 -8 -9 -10 -10 -9 -9 -8 -8 -8 -8 -8 -8 -9 -10 -9 -9 -9 -10 -10 -10 -10 -10 -9 -9 -9 -10